Weather History for KHLC - September, 2012

Change the Weather History Date:

Wednesday, September 12, 2012

  Actual Average Record
Temperature  
Mean Temperature 67 °F 69 °F  
Max Temperature 80 °F 83 °F 108 °F (1956)
Min Temperature 53 °F 55 °F 37 °F (1974)
Cooling Degree Days 1    
Growing Degree Days 16 (Base 50)    
Moisture  
Dew Point 49 °F    
Average Humidity 61    
Maximum Humidity 100    
Minimum Humidity 29    
Precipitation  
Precipitation 0.70 in 0.06 in 0.70 in (2012)
Month to date precipitation 1.86 0.85  
Year to date precipitation 8.69 18.73  
Sea Level Pressure  
Sea Level Pressure 30.01 in    
Wind  
Wind Speed 17 mph (NNE)    
Max Wind Speed 26 mph    
Max Gust Speed 38 mph    
Visibility 8 miles    
Events Rain , Thunderstorm    
T = Trace of Precipitation, MM = Missing Value Source: NWS Daily Summary

Daily Weather History Graph

Daily Weather History Graph

Search for Another Location

Airport or City:

Trip Planner

Search our weather history database for the weather conditions in past years. The results will help you decide how hot, cold, wet, or windy it might be!

Date:

Astronomy

Sep. 12, 2012 Rise Set
Actual Time 7:18 AM CDT 7:51 PM CDT
Civil Twilight 6:51 AM CDT 8:18 PM CDT
Nautical Twilight 6:19 AM CDT 8:50 PM CDT
Astronomical Twilight 5:46 AM CDT 9:23 PM CDT
Moon 3:37 AM CDT (9/12) 5:39 PM CDT (9/12)
Length of Visible Light 13h 27m
Length of Day
12h 33m
Waning Crescent, 13% of the Moon is Illuminated
Sep 12
Waning Crescent
Sep 15
New
Sep 22
First Quarter
Sep 29
Full
Oct 8
Last Quarter

Hourly Weather History & Observations

Time (CDT) Temp. Dew Point Humidity Pressure Visibility Wind Dir Wind Speed Gust Speed Precip Events Conditions
12:53 AM 78.1 °F 48.0 °F 35% 29.74 in 10.0 mi South 18.4 mph 25.3 mph N/A   Clear
1:53 AM 78.1 °F 48.9 °F 36% 29.73 in 10.0 mi South 17.3 mph 25.3 mph N/A   Clear
2:53 AM 77.0 °F 48.9 °F 37% 29.71 in 10.0 mi South 16.1 mph 25.3 mph N/A   Clear
3:53 AM 77.0 °F 48.0 °F 36% 29.73 in 10.0 mi SSW 24.2 mph 34.5 mph N/A   Clear
4:04 AM 75.2 °F 48.2 °F 38% 29.85 in 10.0 mi SW 8.1 mph 26.5 mph N/A   Clear
4:53 AM 73.0 °F 48.0 °F 41% 29.78 in 10.0 mi Calm Calm - N/A   Clear
5:53 AM 68.0 °F 50.0 °F 52% 29.79 in 10.0 mi ENE 4.6 mph - N/A   Clear
6:53 AM 66.9 °F 50.0 °F 54% 29.83 in 10.0 mi NNE 5.8 mph - N/A   Clear
7:53 AM 64.9 °F 42.1 °F 43% 29.89 in 10.0 mi NNE 19.6 mph 28.8 mph 0.00 in   Clear
8:53 AM 66.0 °F 39.9 °F 38% 29.91 in 10.0 mi NNE 23.0 mph 31.1 mph N/A   Clear
9:53 AM 68.0 °F 41.0 °F 37% 29.95 in 10.0 mi NNE 26.5 mph 32.2 mph N/A   Clear
11:53 AM 73.0 °F 43.0 °F 34% 29.99 in 10.0 mi NNE 25.3 mph 33.4 mph N/A   Clear
12:53 PM 75.9 °F 44.1 °F 32% 29.98 in 10.0 mi NNE 24.2 mph 33.4 mph N/A   Clear
1:53 PM 79.0 °F 44.1 °F 29% 29.99 in 10.0 mi NE 21.9 mph 31.1 mph N/A   Clear
2:53 PM 79.0 °F 44.1 °F 29% 30.01 in 10.0 mi NE 23.0 mph 28.8 mph N/A   Clear
4:46 PM 60.8 °F 50.0 °F 68% 30.12 in 7.0 mi North 24.2 mph 31.1 mph 0.01 in Rain , Thunderstorm Light Rain
4:53 PM 59.0 °F 51.1 °F 75% 30.10 in 7.0 mi North 20.7 mph 31.1 mph 0.01 in Rain , Thunderstorm Light Rain
5:15 PM 57.2 °F 51.8 °F 82% 30.15 in 5.0 mi North 24.2 mph 31.1 mph 0.04 in Rain Rain
5:53 PM 55.0 °F 52.0 °F 89% 30.13 in 6.0 mi North 26.5 mph 36.8 mph 0.07 in Rain Light Rain
6:53 PM 54.0 °F 52.0 °F 93% 30.17 in 10.0 mi North 26.5 mph 38.0 mph 0.02 in   Overcast
8:10 PM 53.6 °F 51.8 °F 94% 30.23 in 4.0 mi NNE 19.6 mph 27.6 mph 0.04 in Rain Rain
8:39 PM 53.6 °F 51.8 °F 94% 30.25 in 6.0 mi NNE 16.1 mph - 0.08 in Rain Rain
8:53 PM 53.1 °F 52.0 °F 96% 30.24 in 6.0 mi NNE 16.1 mph - 0.09 in Rain Light Rain
9:41 PM 53.6 °F 51.8 °F 94% 30.27 in 4.0 mi NE 13.8 mph - 0.12 in Rain Heavy Rain
9:53 PM 53.1 °F 52.0 °F 96% 30.25 in 6.0 mi NNE 15.0 mph - 0.14 in Rain Rain
10:12 PM 53.6 °F 53.6 °F 100% 30.27 in 6.0 mi NNE 12.7 mph - 0.04 in Rain Rain
10:53 PM 54.0 °F 53.1 °F 97% 30.27 in 5.0 mi NNE 12.7 mph - 0.13 in Rain Rain